DW1779 Weather Reports


time (UTC)temp
F
wind
direction
speed
knots
gust
knots
rain 1hr
in
rain 24hr
in
rain mn
in
humidity
%
barometer
mb
20200531063118 54 60 0.0 0.0 0.00 0.00 0.00 90 1024.2
20200531062552 54 60 0.0 0.0 0.00 0.00 0.00 91 1024.2
20200531062035 54 60 0.0 0.0 0.00 0.00 0.00 90 1024.2
20200531061545 55 60 0.0 0.0 0.00 0.00 0.00 90 1024.1
20200531061038 55 60 0.0 0.0 0.00 0.00 0.00 90 1024.3
20200531060534 55 60 0.0 0.0 0.00 0.00 0.00 90 1024.2
20200531060135 55 60 0.0 0.0 0.00 0.00 0.00 90 1024.1
20200531055613 55 60 0.0 0.0 0.00 0.00 0.00 90 1024.0
20200531055056 55 60 0.0 0.0 0.00 0.00 0.00 90 1023.9
20200531054853 55 60 0.0 0.0 0.00 0.00 0.00 90 1023.9
20200531054055 55 60 0.0 0.0 0.00 0.00 0.00 90 1024.0
20200531053554 55 60 0.0 0.0 0.00 0.00 0.00 90 1024.0
20200531053135 56 60 0.0 0.0 0.00 0.00 0.00 90 1023.9
20200531052554 56 60 0.0 0.0 0.00 0.00 0.00 90 1023.9
20200531052052 56 60 0.0 0.0 0.00 0.00 0.00 90 1023.7
20200531051620 56 60 0.0 0.0 0.00 0.00 0.00 90 1023.7
20200531051051 56 60 0.0 0.0 0.00 0.00 0.00 90 1023.8
20200531050550 56 60 0.0 0.0 0.00 0.00 0.00 90 1023.8
20200531050122 56 60 0.0 0.0 0.00 0.00 0.00 90 1023.9
20200531045545 57 60 0.0 0.0 0.00 0.00 0.00 89 1023.8
20200531045045 57 60 0.0 0.0 0.00 0.00 0.00 90 1023.8
20200531044624 57 60 0.0 0.0 0.00 0.00 0.00 90 1023.7
20200531044044 57 60 0.0 0.0 0.00 0.00 0.00 89 1023.8
20200531043608 57 60 0.0 0.0 0.00 0.00 0.00 89 1023.9
20200531043347 57 60 0.0 0.0 0.00 0.00 0.00 89 1023.8
20200531042605 57 60 0.0 0.0 0.00 0.00 0.00 89 1023.7
20200531042052 57 60 0.0 0.0 0.00 0.00 0.00 89 1023.8
20200531041617 57 60 0.0 0.0 0.00 0.00 0.00 89 1023.9
20200531041043 58 60 0.0 0.0 0.00 0.00 0.00 89 1023.9
20200531040544 58 60 0.0 0.0 0.00 0.00 0.00 89 1024.0
20200531040141 58 60 0.0 0.0 0.00 0.00 0.00 89 1023.8
20200531035542 58 60 0.0 0.0 0.00 0.00 0.00 88 1023.8
20200531035057 58 60 0.0 0.0 0.00 0.00 0.00 89 1023.9
20200531034858 58 60 0.0 0.0 0.00 0.00 0.00 88 1023.8
20200531034058 59 60 0.0 0.0 0.00 0.00 0.00 88 1023.9
20200531033551 59 60 0.0 0.0 0.00 0.00 0.00 88 1023.9
20200531033119 59 60 0.0 0.0 0.00 0.00 0.00 87 1023.8
20200531032541 59 60 0.0 0.0 0.00 0.00 0.00 87 1023.8
20200531032049 59 60 0.0 0.0 0.00 0.00 0.00 87 1023.8
20200531031613 60 60 0.0 0.0 0.00 0.00 0.00 86 1023.9
20200531031040 60 60 0.0 0.0 0.00 0.00 0.00 86 1023.8
20200531030541 60 60 0.0 0.0 0.00 0.00 0.00 86 1023.7
20200531030115 60 60 0.0 0.0 0.00 0.00 0.00 86 1023.6
20200531025541 61 60 0.0 0.0 0.00 0.00 0.00 85 1023.5
20200531025041 61 60 0.0 0.0 0.00 0.00 0.00 85 1023.4
20200531024612 62 60 0.0 0.0 0.00 0.00 0.00 85 1023.4
20200531024041 62 60 0.0 0.0 0.00 0.00 0.00 84 1023.3
20200531023600 62 60 0.0 0.0 0.00 0.00 0.00 83 1023.4
20200531023120 63 60 0.0 0.0 0.00 0.00 0.00 82 1023.3
20200531022552 63 60 0.0 0.0 0.00 0.00 0.00 83 1023.3
20200531022043 63 60 0.0 0.0 0.00 0.00 0.00 82 1023.3
20200531021555 63 60 0.0 0.0 0.00 0.00 0.00 81 1023.2
20200531021051 63 60 0.0 0.0 0.00 0.00 0.00 82 1023.1
20200531020544 64 60 0.0 0.0 0.00 0.00 0.00 81 1023.1
20200531020110 64 60 0.0 0.0 0.00 0.00 0.00 82 1023.1
20200531015543 64 60 0.0 0.0 0.00 0.00 0.00 81 1023.1
20200531015037 64 60 0.0 0.0 0.00 0.00 0.00 80 1023.0
20200531014553 64 60 0.0 0.0 0.00 0.00 0.00 79 1022.8
20200531014049 64 60 0.0 0.0 0.00 0.00 0.00 79 1023.0
20200531013537 64 60 0.0 0.0 0.00 0.00 0.00 79 1022.9
20200531013037 65 60 0.0 0.0 0.00 0.00 0.00 77 1022.8
20200531012546 65 60 0.0 0.0 0.00 0.00 0.00 77 1022.7
20200531012036 65 60 0.0 0.0 0.00 0.00 0.00 75 1022.8
20200531011558 65 60 0.0 0.0 0.00 0.00 0.00 74 1022.8
20200531011036 66 60 0.0 0.0 0.00 0.00 0.00 74 1022.9
20200531010535 66 60 0.0 0.0 0.00 0.00 0.00 73 1022.9
20200531010208 66 60 0.0 0.0 0.00 0.00 0.00 72 1022.9
20200531005554 67 60 0.0 0.9 0.00 0.00 0.00 71 1022.8
20200531005056 67 60 0.0 1.7 0.00 0.00 0.00 70 1022.7
20200531004706 68 60 0.9 1.7 0.00 0.00 0.00 66 1022.7
20200531004053 68 53 0.0 0.0 0.00 0.00 0.00 65 1022.6
20200531003553 70 52 0.0 1.7 0.00 0.00 0.00 63 1022.7
20200531003147 71 11 0.0 2.6 0.00 0.00 0.00 60 1022.8
20200531002552 71 42 0.0 2.6 0.00 0.00 0.00 56 1022.7
20200531002053 72 18 0.9 2.6 0.00 0.00 0.00 56 1022.7
20200531001651 72 88 0.9 3.5 0.00 0.00 0.00 54 1022.6
20200531001052 73 85 0.9 5.2 0.00 0.00 0.00 53 1022.7
20200531000552 73 84 0.0 5.2 0.00 0.00 0.00 55 1022.7
20200531000058 73 25 1.7 6.1 0.00 0.00 0.00 56 1022.7
20200530235551 73 73 1.7 8.7 0.00 0.00 0.00 52 1022.6
20200530235049 74 77 3.5 8.7 0.00 0.00 0.00 50 1022.6
20200530234643 74 339 0.9 7.0 0.00 0.00 0.00 50 1022.7
20200530234047 74 9 2.6 5.2 0.00 0.00 0.00 49 1022.6
20200530233605 74 360 1.7 4.3 0.00 0.00 0.00 48 1022.6
20200530233128 74 57 1.7 7.8 0.00 0.00 0.00 49 1022.6
20200530232606 74 57 2.6 7.8 0.00 0.00 0.00 49 1022.6
20200530232057 74 355 1.7 5.2 0.00 0.00 0.00 49 1022.6
20200530231653 73 11 0.9 5.2 0.00 0.00 0.00 50 1022.6
20200530231047 74 30 1.7 5.2 0.00 0.00 0.00 50 1022.7
20200530230547 74 296 1.7 4.3 0.00 0.00 0.00 48 1022.6
20200530230115 74 345 2.6 4.3 0.00 0.00 0.00 47 1022.7
20200530225547 74 44 0.9 5.2 0.00 0.00 0.00 51 1022.6
20200530225046 74 318 2.6 7.8 0.00 0.00 0.00 49 1022.6
20200530224703 74 29 2.6 7.8 0.00 0.00 0.00 49 1022.7
20200530224044 74 355 1.7 7.0 0.00 0.00 0.00 50 1022.7
20200530223602 74 53 0.9 7.8 0.00 0.00 0.00 50 1022.9
20200530223206 75 360 1.7 8.7 0.00 0.00 0.00 53 1022.9
20200530222543 75 30 2.6 8.7 0.00 0.00 0.00 50 1023.0
20200530222044 74 53 4.3 8.7 0.00 0.00 0.00 49 1023.0
20200530221720 74 9 2.6 7.8 0.00 0.00 0.00 51 1023.1
20200530221052 74 333 0.9 9.6 0.00 0.00 0.00 48 1023.0
20200530220543 75 24 2.6 9.6 0.00 0.00 0.00 49 1023.0
20200530220145 75 72 2.6 7.8 0.00 0.00 0.00 47 1022.9
20200530215545 75 333 0.0 8.7 0.00 0.00 0.00 47 1022.9
20200530215050 76 325 4.3 8.7 0.00 0.00 0.00 45 1023.0
20200530214710 76 355 0.9 8.7 0.00 0.00 0.00 49 1022.9
20200530214038 76 61 0.9 8.7 0.00 0.00 0.00 44 1022.9
20200530213538 77 36 3.5 7.8 0.00 0.00 0.00 44 1022.8
20200530213120 76 10 1.7 7.8 0.00 0.00 0.00 48 1022.8
20200530212540 76 11 1.7 7.8 0.00 0.00 0.00 47 1022.7
20200530212053 76 295 2.6 7.8 0.00 0.00 0.00 42 1022.8
20200530211617 77 314 0.9 7.8 0.00 0.00 0.00 45 1022.8
20200530211043 77 345 2.6 7.8 0.00 0.00 0.00 43 1022.8
20200530210545 77 336 2.6 8.7 0.00 0.00 0.00 41 1022.8
20200530210336 76 26 0.9 8.7 0.00 0.00 0.00 46 1022.8
20200530205603 77 285 2.6 7.0 0.00 0.00 0.00 41 1022.8
20200530205059 77 350 2.6 7.0 0.00 0.00 0.00 43 1022.8
20200530204752 76 43 0.9 8.7 0.00 0.00 0.00 39 1022.7
20200530204057 76 321 3.5 8.7 0.00 0.00 0.00 42 1022.8
20200530203244 76 324 4.3 9.6 0.00 0.00 0.00 44 1022.9
20200530202610 77 342 3.5 7.0 0.00 0.00 0.00 44 1022.8
20200530202056 76 325 1.7 7.0 0.00 0.00 0.00 43 1022.8
20200530201646 77 80 2.6 7.0 0.00 0.00 0.00 42 1022.8
20200530201055 76 110 0.9 7.8 0.00 0.00 0.00 44 1022.9
20200530200554 76 25 4.3 10.4 0.00 0.00 0.00 40 1022.9
20200530200210 77 14 4.3 10.4 0.00 0.00 0.00 41 1023.0
20200530195551 76 60 1.7 5.2 0.00 0.00 0.00 46 1023.0
20200530195105 76 288 2.6 9.6 0.00 0.00 0.00 42 1023.1
20200530194618 75 5 2.6 9.6 0.00 0.00 0.00 40 1023.3
20200530194051 76 336 5.2 9.6 0.00 0.00 0.00 43 1023.3
20200530193548 76 19 2.6 8.7 0.00 0.00 0.00 45 1023.3
20200530193140 76 295 2.6 9.6 0.00 0.00 0.00 50 1023.3
20200530192552 76 343 4.3 9.6 0.00 0.00 0.00 48 1023.3
20200530192108 76 321 2.6 9.6 0.00 0.00 0.00 44 1023.5
20200530191635 76 15 4.3 9.6 0.00 0.00 0.00 47 1023.4
20200530191047 76 344 2.6 10.4 0.00 0.00 0.00 45 1023.5
20200530190549 76 344 4.3 10.4 0.00 0.00 0.00 48 1023.5
20200530190118 75 355 1.7 8.7 0.00 0.00 0.00 49 1023.5
20200530185606 76 336 4.3 8.7 0.00 0.00 0.00 48 1023.6
20200530185057 76 80 1.7 7.8 0.00 0.00 0.00 42 1023.6
20200530184710 75 9 2.6 7.0 0.00 0.00 0.00 48 1023.5
20200530184050 75 328 1.7 8.7 0.00 0.00 0.00 42 1023.6
20200530183545 75 5 3.5 8.7 0.00 0.00 0.00 47 1023.7
20200530183133 75 5 2.6 8.7 0.00 0.00 0.00 43 1023.7
20200530182546 75 331 2.6 8.7 0.00 0.00 0.00 44 1023.9
20200530182046 75 5 3.5 7.0 0.00 0.00 0.00 42 1023.8
20200530181552 75 68 1.7 7.8 0.00 0.00 0.00 49 1023.8
20200530181043 74 51 1.7 9.6 0.00 0.00 0.00 49 1023.9
20200530180550 74 53 5.2 9.6 0.00 0.00 0.00 44 1024.0
20200530180146 74 351 2.6 8.7 0.00 0.00 0.00 43 1024.0
20200530175546 75 317 0.0 9.6 0.00 0.00 0.00 47 1024.1
20200530175046 75 42 2.6 10.4 0.00 0.00 0.00 47 1024.2
20200530174625 74 88 5.2 10.4 0.00 0.00 0.00 46 1024.0
20200530174043 74 32 2.6 8.7 0.00 0.00 0.00 50 1024.1
20200530173549 74 121 0.9 7.8 0.00 0.00 0.00 53 1024.0
20200530173119 73 293 2.6 7.8 0.00 0.00 0.00 46 1024.1
20200530172543 73 335 1.7 7.0 0.00 0.00 0.00 49 1024.1
20200530172046 74 322 2.6 9.6 0.00 0.00 0.00 46 1024.2
20200530171655 73 53 1.7 9.6 0.00 0.00 0.00 51 1024.4
20200530171042 74 309 0.9 6.1 0.00 0.00 0.00 46 1024.5
20200530170541 73 301 2.6 6.1 0.00 0.00 0.00 51 1024.5
20200530170033 73 344 1.7 10.4 0.00 0.00 0.00 46 1024.5
20200530165513 73 273 4.3 10.4 0.00 0.00 0.00 47 1024.5
20200530165010 72 340 1.7 4.3 0.00 0.00 0.00 50 1024.3
20200530164520 72 96 1.7 5.2 0.00 0.00 0.00 50 1024.2
20200530164008 72 34 1.7 4.3 0.00 0.00 0.00 53 1024.3
20200530163512 72 329 1.7 6.1 0.00 0.00 0.00 56 1024.3
20200530163009 72 105 3.5 6.1 0.00 0.00 0.00 52 1024.4
20200530162508 72 111 1.7 5.2 0.00 0.00 0.00 51 1024.3
20200530162003 72 73 3.5 9.6 0.00 0.00 0.00 56 1024.4
20200530161503 71 104 2.6 9.6 0.00 0.00 0.00 50 1024.4
20200530161001 71 86 0.9 6.1 0.00 0.00 0.00 54 1024.3
20200530160632 71 55 1.7 6.1 0.00 0.00 0.00 50 1024.5
20200530160001 71 114 0.9 7.8 0.00 0.00 0.00 51 1024.3
20200530155600 70 124 1.7 7.8 0.00 0.00 0.00 53 1024.4
20200530155106 71 79 2.6 7.8 0.00 0.00 0.00 54 1024.4
20200530154711 70 140 1.7 7.8 0.00 0.00 0.00 57 1024.4
20200530154056 70 80 2.6 7.0 0.00 0.00 0.00 52 1024.4
20200530153558 70 40 3.5 7.8 0.00 0.00 0.00 51 1024.3
20200530153201 70 71 2.6 7.8 0.00 0.00 0.00 54 1024.4
20200530152551 69 5 1.7 7.8 0.00 0.00 0.00 56 1024.3
20200530152050 70 5 3.5 7.8 0.00 0.00 0.00 53 1024.3
20200530151624 69 342 2.6 7.8 0.00 0.00 0.00 55 1024.4
20200530151111 69 131 1.7 5.2 0.00 0.00 0.00 57 1024.4
20200530150546 69 61 0.9 5.2 0.00 0.00 0.00 58 1024.4
20200530150137 68 343 1.7 5.2 0.00 0.00 0.00 58 1024.4
20200530145555 68 46 0.9 5.2 0.00 0.00 0.00 58 1024.5
20200530145053 68 63 0.9 7.8 0.00 0.00 0.00 59 1024.5
20200530144619 67 67 1.7 8.7 0.00 0.00 0.00 57 1024.7
20200530144054 67 5 4.3 8.7 0.00 0.00 0.00 59 1024.7
20200530143549 67 339 2.6 8.7 0.00 0.00 0.00 59 1024.7
20200530143121 66 51 1.7 6.1 0.00 0.00 0.00 62 1024.8
20200530142545 66 23 1.7 7.8 0.00 0.00 0.00 64 1024.8
20200530142056 66 92 2.6 7.8 0.00 0.00 0.00 63 1024.7
20200530141553 66 87 2.6 6.1 0.00 0.00 0.00 63 1024.8
20200530141055 65 57 1.7 4.3 0.00 0.00 0.00 63 1024.9
20200530140540 65 70 0.9 6.1 0.00 0.00 0.00 63 1024.8
20200530135505 64 331 1.7 3.5 0.00 0.00 0.00 70 1024.9
20200530135008 63 52 1.7 7.0 0.00 0.00 0.00 69 1024.9
20200530134511 63 38 3.5 7.0 0.00 0.00 0.00 69 1024.8
20200530134002 63 98 0.0 6.1 0.00 0.00 0.00 70 1024.9
20200530133613 62 63 1.7 6.1 0.00 0.00 0.00 72 1024.9
20200530133501 62 59 1.7 6.1 0.00 0.00 0.00 71 1024.9
20200530133140 62 63 1.7 4.3 0.00 0.00 0.00 75 1024.8
20200530132622 61 50 0.9 3.5 0.00 0.00 0.00 78 1024.8
20200530132056 61 82 0.0 2.6 0.00 0.00 0.00 82 1024.6
20200530131650 60 333 0.0 0.0 0.00 0.00 0.00 83 1024.6
20200530131053 59 333 0.0 0.0 0.00 0.00 0.00 86 1024.6
20200530130552 58 332 0.0 0.0 0.00 0.00 0.00 89 1024.6
20200530130135 57 332 0.0 0.0 0.00 0.00 0.00 90 1024.6
20200530125555 56 292 0.0 0.0 0.00 0.00 0.00 91 1024.6
20200530125054 55 292 0.0 0.0 0.00 0.00 0.00 91 1024.5
20200530124622 54 292 0.0 0.0 0.00 0.00 0.00 92 1024.4
20200530124053 53 292 0.0 0.0 0.00 0.00 0.00 92 1024.4
20200530123605 53 292 0.0 0.0 0.00 0.00 0.00 92 1024.3
20200530123124 52 292 0.0 0.0 0.00 0.00 0.00 92 1024.5
20200530122548 52 292 0.0 0.0 0.00 0.00 0.00 92 1024.4
20200530122049 52 292 0.0 0.0 0.00 0.00 0.00 92 1024.5
20200530121704 51 291 0.0 0.0 0.00 0.00 0.00 92 1024.5
20200530121049 50 291 0.0 0.0 0.00 0.00 0.00 92 1024.4
20200530120555 50 291 0.0 0.0 0.00 0.00 0.00 92 1024.4
20200530120237 50 291 0.0 0.0 0.00 0.00 0.00 91 1024.3
20200530115552 49 291 0.0 0.0 0.00 0.00 0.00 92 1024.3
20200530115058 49 291 0.0 0.0 0.00 0.00 0.00 91 1024.3
20200530114744 49 291 0.0 0.0 0.00 0.00 0.00 92 1024.4
20200530114049 48 291 0.0 0.0 0.00 0.00 0.00 91 1024.3
20200530113549 48 291 0.0 0.0 0.00 0.00 0.00 91 1024.4
20200530113210 48 291 0.0 0.0 0.00 0.00 0.00 91 1024.2
20200530112547 48 291 0.0 0.0 0.00 0.00 0.00 91 1024.3
20200530112057 48 291 0.0 0.0 0.00 0.00 0.00 91 1024.3
20200530111633 48 291 0.0 0.0 0.00 0.00 0.00 91 1024.2
20200530111045 48 291 0.0 0.0 0.00 0.00 0.00 91 1024.2
20200530110545 48 291 0.0 0.0 0.00 0.00 0.00 91 1024.1
20200530110129 48 291 0.0 0.0 0.00 0.00 0.00 91 1024.1
20200530105547 47 291 0.0 0.0 0.00 0.00 0.00 91 1023.9
20200530105046 47 291 0.0 0.0 0.00 0.00 0.00 91 1023.8
20200530104607 48 291 0.0 0.0 0.00 0.00 0.00 91 1023.7
20200530104049 48 291 0.0 0.0 0.00 0.00 0.00 91 1023.7
20200530103545 48 291 0.0 0.0 0.00 0.00 0.00 91 1023.6
20200530103056 48 291 0.0 0.0 0.00 0.00 0.00 91 1023.6
20200530102543 48 291 0.0 0.0 0.00 0.00 0.00 91 1023.6
20200530102058 48 291 0.0 0.0 0.00 0.00 0.00 91 1023.7
20200530101609 48 291 0.0 0.0 0.00 0.00 0.00 91 1023.5
20200530101049 48 291 0.0 0.0 0.00 0.00 0.00 91 1023.4
20200530100545 48 291 0.0 0.0 0.00 0.00 0.00 91 1023.4
20200530100138 48 291 0.0 0.0 0.00 0.00 0.00 91 1023.3
20200530095546 48 291 0.0 0.0 0.00 0.00 0.00 91 1023.3
20200530095114 48 291 0.0 0.0 0.00 0.00 0.00 91 1023.2
20200530094709 48 291 0.0 0.0 0.00 0.00 0.00 91 1023.1
20200530094053 48 291 0.0 0.0 0.00 0.00 0.00 91 1023.1
20200530093545 49 291 0.0 0.0 0.00 0.00 0.00 91 1023.1
20200530093110 49 291 0.0 0.0 0.00 0.00 0.00 91 1023.0
20200530092538 49 291 0.0 0.0 0.00 0.00 0.00 91 1023.1
20200530092038 49 291 0.0 0.0 0.00 0.00 0.00 91 1023.0
20200530091038 49 291 0.0 0.0 0.00 0.00 0.00 91 1022.8
20200530090537 49 291 0.0 0.0 0.00 0.00 0.00 91 1023.0
20200530090126 49 291 0.0 0.0 0.00 0.00 0.00 91 1022.9
20200530085646 49 291 0.0 0.0 0.00 0.00 0.00 91 1022.8
20200530085105 49 291 0.0 0.0 0.00 0.00 0.00 91 1022.7
20200530084617 49 291 0.0 0.0 0.00 0.00 0.00 91 1022.6
20200530084101 49 291 0.0 0.0 0.00 0.00 0.00 91 1022.6
20200530083556 49 291 0.0 0.0 0.00 0.00 0.00 91 1022.6
20200530083156 49 291 0.0 0.0 0.00 0.00 0.00 91 1022.4
20200530082606 49 291 0.0 0.0 0.00 0.00 0.00 91 1022.5
20200530082104 49 291 0.0 0.0 0.00 0.00 0.00 91 1022.5
20200530081648 50 291 0.0 0.0 0.00 0.00 0.00 91 1022.5
20200530081056 50 291 0.0 0.0 0.00 0.00 0.00 91 1022.5
20200530080603 50 291 0.0 0.0 0.00 0.00 0.00 91 1022.5
20200530080110 50 291 0.0 0.0 0.00 0.00 0.00 91 1022.3
20200530075605 50 291 0.0 0.0 0.00 0.00 0.00 91 1022.4
20200530075056 50 291 0.0 0.0 0.00 0.00 0.00 91 1022.3
20200530074743 50 291 0.0 0.0 0.00 0.00 0.00 91 1022.2
20200530074104 50 291 0.0 0.0 0.00 0.00 0.00 91 1022.2
20200530073552 50 291 0.0 0.0 0.00 0.00 0.00 91 1022.1
20200530073128 50 291 0.0 0.0 0.00 0.00 0.00 91 1022.0
20200530072552 50 291 0.0 0.0 0.00 0.00 0.00 91 1022.1
20200530072125 50 291 0.0 0.0 0.00 0.00 0.00 91 1022.0
20200530071726 50 291 0.0 0.0 0.00 0.00 0.00 91 1022.0
20200530071057 51 291 0.0 0.0 0.00 0.00 0.00 91 1022.0
20200530070550 51 291 0.0 0.0 0.00 0.00 0.00 91 1022.0
20200530070155 51 291 0.0 0.0 0.00 0.00 0.00 91 1022.0
20200530065550 51 291 0.0 0.0 0.00 0.00 0.00 91 1022.0
20200530065058 51 291 0.0 0.0 0.00 0.00 0.00 90 1022.1
20200530064717 51 291 0.0 0.0 0.00 0.00 0.00 91 1022.0
20200530064107 51 291 0.0 0.0 0.00 0.00 0.00 90 1022.0
20200530063553 51 291 0.0 0.0 0.00 0.00 0.00 90 1022.1